Regional Weather Roundup
Issued by NWS State College, PA

Home | Current Version | Previous Version | Text Only | Print | Product List | Glossary On
Versions: 1 2 3 4 5 6 7 8 9 10 11 12 13 14 15 16 17 18 19 20 21 22 23 24 25 26 27 28 29 30 31 32 33 34 35 36 37 38 39 40 41 42 43 44 45 46 47 48 49 50
434
ASUS41 KCTP 241010
RWRCTP

REGIONAL WEATHER ROUNDUP
NATIONAL WEATHER SERVICE STATE COLLEGE PA
500 AM EST FRI FEB 24 2017

Note: "fair" indicates few or no clouds below 12,000 feet with no
significant weather and/or obstructions to visibility.

* = STATION THAT DOES NOT REPORT PRECIPITATION /E.G. RAIN...SNOW...ETC/
    THUNDER OR FOG.

PAZ002>004-007>009-013>016-020>023-029>032-241100-
WESTERN PENNSYLVANIA

CITY           SKY/WX    TMP DP  RH WIND       PRES   REMARKS
ERIE           CLOUDY    40  38  93 NE12      29.78R FOG
MEADVILLE      CLOUDY    56  51  84 S6        29.76F
FRANKLIN*      CLOUDY    54  50  87 S9        29.80S
NEW CASTLE     FAIR      55  53  93 VRB3      29.78S
BEAVER COUNTY  NOT AVBL
BUTLER*        CLOUDY    55  52  88 S6        29.81S
PITTSBURGH INT CLOUDY    55  52  89 S3        29.79S
PITTSBURGH     PTCLDY    58  49  72 S7        29.80S
INDIANA*       CLEAR     55  52  88 CALM      29.85S
LATROBE        MOCLDY    52  52 100 CALM      29.82F
WASHINGTON CO* MOCLDY    52  48  87 S3        29.82F
$$

PAZ004>006-010>012-017>019-024>028-033>037-041-042-045-046-049>053-241100-
CENTRAL PENNSYLVANIA

CITY           SKY/WX    TMP DP  RH WIND       PRES   REMARKS
BRADFORD       CLOUDY    52  52 100 S5        29.81F
DUBOIS         PTCLDY    54  49  83 SE6       29.81S
CLEARFIELD       N/A    N/A N/A N/A MISG      29.83F
JOHNSTOWN      PTCLDY    56  49  77 S5        29.84F
ALTOONA        PTCLDY    51  48  89 S3        29.85S
STATE COLLEGE  PTCLDY    53  50  91 CALM      29.84F
WILLIAMSPORT   CLOUDY    47  46  97 E3        29.84S
SELINSGROVE    CLOUDY    49  47  93 E3        29.86S
FT INDIANTOWN  MOCLDY    49  49 100 NE3       29.89R
CAPITAL CITY   MOCLDY    56  49  77 CALM      29.87S
HARRISBURG     MOCLDY    54  50  86 SE6       29.87R
YORK           CLOUDY    59  51  75 CALM      29.88R
$$

PAZ038>040-043-044-047-048-054-055-060>062-067>071-241100-
EASTERN PENNSYLVANIA

CITY           SKY/WX    TMP DP  RH WIND       PRES   REMARKS
SCRANTON       CLOUDY    53  52  96 CALM      29.87R
MOUNT POCONO   CLOUDY    52  50  93 CALM      29.90R
ALLENTOWN      CLOUDY    53  48  83 S5        29.90R
QUAKERTOWN*    PTSUNNY   52  50  93 SW3       29.91S
READING        CLOUDY    59  53  80 S5        29.89R
LANCASTER      CLOUDY    51  50  96 NE3       29.89R
COATESVILLE    CLOUDY    54  52  94 S3        29.92S
POTTSTOWN      PTCLDY    52  49  89 CALM      29.92S
BLUE BELL      MOCLDY    54  52  94 S5        29.90F
DOYLESTOWN     MOCLDY    55  52  89 VRB3      29.91S
WILLOW GROVE   NOT AVBL
NORTH PHILA    PTCLDY    49  47  93 CALM      29.93S
PHILADELPHIA   PTCLDY    52  49  89 S7        29.93R
$$




USA.gov is the U.S. government's official web portal to all federal, state and local government web resources and services.